www.pogodaiklimat.ru

Погода и климат >> Архив погоды >> Мексика >> Tuxtla Gutierrez


ПОГОДА в Tuxtla Gutierrez

  • Прогноз погоды в Tuxtla Gutierrez
  • Монитор погоды в Tuxtla Gutierrez
  • Климат города

АРХИВ ПОГОДЫ в Tuxtla Gutierrez

Время (UTC), дата Ветер
(напр.,м/с)
 
Видим.   Явления Облачность Т
(С)
Тd
(С)
f
(%)
Тe
(С)
Тes
(С)
Комфортность P
(гПа)
Po
(гПа)
Тmin
(С)
Tmax
(С)
R
(мм)
R24
(мм)
S
(см)
03 11.08 ЮЗ 2 15 км 5/0 2000 м
[Ac As]
+25.2 +21.0 78 +32 +32 очень
душно
1011.9 949.5
06 11.08 ЮЗ 1 15 км 5/5 1200 м
[Sc diur, vesp]
+24.6 +21.7 84 +31 +31 очень
душно
1013.2 950.4 +23.1 +35.0
09 11.08 З 1 15 км 3/3 1500 м
[Sc diur, vesp]
+23.9 +21.5 86 +30 +30 очень
душно
1012.4 949.2
12 11.08 штиль 0 15 км 4/0 2000 м
[Ac trans]
+23.1 +21.3 90 +31 +31 очень
душно
1012.7 949.2 +22.6 +35.0
15 11.08 В 2 15 км 3/1 700 м
[Cu hum Ci fib]
+27.3 +21.8 72 +35 +44 очень
душно
1014.3 950.7
18 11.08 Ю 2 15 км 3/1 800 м
[Cu med, cong Cc]
+32.5 +22.8 57 +43 +62 опасность
перегрева
1012.3 949.2 +22.6 +33.3
21 11.08 ЮЗ 2 15 км 3/3 900 м
[Cu med, cong]
+35.5 +20.3 41 +42 +51 опасность
перегрева
1008.8 946.5
00 12.08 Ю 1 15 км в посл. час дождь 9/3 600 м
[Cu med, cong As op Ci fib]
+25.3 +20.8 76 +32 +32 очень
душно
1008.8 946.8 9
03 12.08 З 2 15 км 1/0
[Ci fib]
+26.5 +22.1 77 +34 +34 очень
душно
1010.6 948.5
06 12.08 С 2 15 км 1/1 700 м
[Cu med, cong]
+25.1 +20.6 76 +31 +31 очень
душно
1012.5 949.9 +22.6 +36.3
09 12.08 Ю 1 15 км ясно +23.2 +20.5 85 +31 +31 очень
душно
1012.4 949.4
12 12.08 штиль 0 15 км 4/0
[Ci fib]
+21.7 +19.4 87 +27 +27 душно 1013.5 949.9 +20.6 +36.3
15 12.08 Ю 1 15 км 9/0
[Ac und]
+26.2 +20.9 73 +33 +38 очень
душно
1015.1 951.4
18 12.08 Ю 3 15 км 9/1 660 м
[Cu hum Ac und Cc]
+31.9 +21.9 56 +41 +50 опасность
перегрева
1013.0 949.6 +20.6 +32.8
21 12.08 СЗ 1 15 км 8/3 720 м
[Cu med, cong Ac lent Cc]
+32.5 +22.1 54 +41 +48 опасность
перегрева
1009.1 946.4
00 13.08 З 3 15 км 5/3 600 м
[Cu med, cong Ci ing]
+29.6 +22.8 67 +39 +39 очень
душно
1007.7 945.6 +20.6 +33.6
03 13.08 СЗ 4 15 км ясно +26.6 +21.2 72 +34 +34 очень
душно
1011.0 948.7
06 13.08 З 1 15 км 3/0
[Ac trans]
+25.2 +21.6 80 +32 +32 очень
душно
1012.0 949.4 +20.6 +33.6
09 13.08 ЮЗ 1 15 км 10/0
[Cs]
+23.9 +20.9 83 +30 +30 очень
душно
1012.4 949.4
12 13.08 СЗ 1 15 км 8/0
[Cs]
+23.3 +20.7 85 +31 +31 очень
душно
1013.0 949.6 +23.1 +33.6
15 13.08 ЮЗ 1 15 км 4/3 660 м
[Cu med, cong Ci ing]
+27.4 +22.6 75 +36 +45 очень
душно
1013.3 949.9
18 13.08 З 1 15 км 6/4 800 м
[Cu med, cong Ac trans]
+31.4 +21.5 56 +40 +52 опасность
солнечного
удара
1012.7 949.5 +23.1 +31.8
21 13.08 З 1 15 км слабая морось 9/4 1260 м
[Sc diur, vesp As op]
+28.4 +23.2 73 +38 +41 очень
душно
1009.0 946.4 0.7
00 14.08 ЮЗ 1 15 км слабая морось 9/1 600 м
[Cu med, cong As op]
+25.4 +23.2 88 +34 +34 очень
душно
1009.2 946.8 9
03 14.08 В 1 15 км 3/0
[Ac trans]
+25.2 +21.0 78 +32 +32 очень
душно
1011.4 948.8
06 14.08 В 1 15 км слабая морось 5/1 300 м
[Frnb As op]
+23.4 +21.2 87 +31 +31 очень
душно
1013.2 950.1 0.0
09 14.08 штиль 0 15 км 3/0
[Ac trans]
+23.0 +21.4 91 +31 +31 очень
душно
1012.8 949.4
12 14.08 штиль 0 15 км 3/0
[Ac und]
+21.7 +19.8 89 +27 +27 душно 1012.8 949.3 +21.5 +33.6
15 14.08 ЮЗ 1 15 км 6/0 2000 м
[Ac und]
+25.0 +20.9 78 +31 +39 очень
душно
1013.6 949.8
18 14.08 В 1 15 км 4/3 750 м
[Cu hum Cc]
+30.9 +20.6 54 +38 +55 опасность
солнечного
удара
1012.2 948.7 +21.5 +31.8
21 14.08 С 2 15 км 8/5 750 м
[Frnb As op]
+33.0 +20.9 49 +28 +31 жарко 1008.9 946.1
00 15.08 С 3 15 км 8/1 600 м
[Cu hum As op Ci fib]
+27.0 +21.1 70 +34 +34 очень
душно
1008.6 946.1 +21.5 +33.4
03 15.08 СЗ 2 15 км 3/0 2000 м
[Ac trans]
+25.3 +20.8 76 +32 +32 очень
душно
1010.7 948.2
06 15.08 СВ 1 15 км 8/8 600 м
[]
+24.1 +20.7 81 +30 +30 очень
душно
1013.4 950.2
09 15.08 штиль 0 15 км 1/0
[Ci fib]
+22.5 +20.3 87 +29 +29 очень
душно
1011.7 948.5
12 15.08 З 1 15 км 6/0 2000 м
[Ac trans Ci fib]
+21.3 +19.7 91 +26 +26 душно 1012.4 948.6 +21.0 +33.4
15 15.08 З 1 15 км 6/4 700 м
[Cu med, cong Ci sp]
+26.1 +21.4 75 +33 +40 очень
душно
1014.1 950.3
18 15.08 Ю 1 15 км 6/4 840 м
[Cu med, cong Ci sp]
+31.1 +22.1 59 +40 +55 опасность
солнечного
удара
1012.4 949.2 +21.0 +32.2
21 15.08 С 4 15 км 4/4 1000 м
[Cu med, cong]
+33.1 +22.5 54 +43 +48 опасность
перегрева
1008.7 946.2
00 16.08 СЗ 5 15 км 3/3 600 м
[Cb calv]
+29.6 +23.0 68 +40 +40 очень
душно
1008.2 946.2 +21.0 +34.3
03 16.08 СЗ 1 15 км ясно +26.7 +21.4 73 +34 +34 очень
душно
1010.5 948.4
06 16.08 штиль 0 15 км ясно +25.3 +20.8 76 +32 +32 очень
душно
1012.2 949.1 +21.0 +34.3
09 16.08 З 1 15 км ясно +23.8 +20.8 83 +30 +30 очень
душно
1011.4 948.1
12 16.08 ЮЗ 1 15 км 4/0
[Ci sp]
+22.5 +20.5 88 +29 +29 очень
душно
1013.6 949.6 +22.0 +34.3
15 16.08 Ю 1 15 км 3/0
[Ci fib]
+28.5 +22.3 69 +37 +49 очень
душно
1013.3 950.1
18 16.08 З 2 15 км 4/3 800 м
[Cu med, cong Ci fib]
+32.6 +24.1 61 +45 +60 опасность
перегрева
1011.7 948.6 +22.0 +33.8
21 16.08 З 4 15 км 6/6 840 м
[Cu med, cong]
+30.4 +23.0 65 +41 +44 опасность
перегрева
1009.8 947.2
00 17.08 З 3 15 км 6/6 600 м
[Cb cap]
+30.6 +22.7 63 +40 +40 очень
душно
1009.6 947.4 +22.0 +33.7
03 17.08 З 1 15 км в посл. час морось 5/0 2000 м
[As op]
+25.4 +21.9 81 +33 +33 очень
душно
1013.4 951.0 0.0
06 17.08 ЮВ 1 15 км 1/0
[Ac trans]
+23.4 +21.1 87 +31 +31 очень
душно
1014.6 951.7 +33.7
09 17.08 штиль 0 15 км ясно +22.4 +20.6 90 +29 +29 очень
душно
1012.9 949.7
12 17.08 штиль 0 15 км 4/0 2000 м
[Ac trans]
+21.6 +19.9 90 +27 +27 душно 1014.3 950.6 +21.1 +33.7
15 17.08 С 2 15 км 4/1 700 м
[Cu hum Ci fib]
+27.3 +21.0 69 +34 +43 очень
душно
1015.0 951.2
18 17.08 З 2 15 км 4/1 800 м
[Cu med, cong Ac trans Cc]
+30.5 +21.7 59 +39 +55 опасность
солнечного
удара
1014.2 950.7 +21.1 +31.0
21 17.08 СЗ 3 15 км в посл. час морось 9/4 840 м
[Cb cap Ac As]
+27.5 +22.0 72 +36 +38 очень
душно
1011.5 948.6 0.0

 

Местоположение метеостанции Tuxtla Gutierrez (Мексика): широта 16.75 долгота -93.13 высота над уровнем моря 576 м.

В архиве по умолчанию представлена погода в Tuxtla Gutierrez за последнюю неделю. Архивные данные за месяц целиком и за предыдущие месяцы, начиная с января 2011 года, Вы можете получить, выбрав интересующий диапазон дат из раскрывающегося списка и нажав кнопку "Ввод!".


*Определитесь, кто Вы:
робот инопланетянин человек

Внимание! Время в таблицах - всемирное. Для получения местного времени необходимо прибавить поправку, которая в Tuxtla Gutierrez равна -6 ч.

Смотрите также архив погоды в соседних городах и на ближайших метеорологических станциях:

Погода в Sn. Cristobal Las Casas (Мексика) (53 км)
Погода в Arriaga (Мексика) (100 км)
Погода в Comitan (Мексика) (120 км)
Погода в Villahermosa (Мексика) (138 км)
Погода в Coatzacoalcos (Мексика) (205 км)
Погода в Tapachula City (Мексика) (224 км)
Погода в Salina Cruz (Мексика) (228 км)
Погода в Huehuetenango (Гватемала) (239 км)
Погода в Flores (Гватемала) (347 км)
Погода в Guatemala (Гватемала) (370 км)

Пояснения к столбцам:

Ветер - указаны скорость ветра в м/с - средняя за 10 мин, порывы в срок и между сроками (в фигурных скобках) и направление, откуда дует ветер: С - северный, СВ - северо-восточный, В - восточный, ЮВ - юго-восточный, Ю - южный, ЮЗ - юго-западный, З - западный, СЗ - северо-западный.
Видимость - горизонтальная дальность видимости в метрах или километрах. При видимости от 1 до 10 км при отсутствии осадков обычно наблюдается дымка, при ухудшении видимости до 1 км и менее - туман. В сухую погоду видимость может ухудшаться дымом, пылью или мглою.
Явления - указаны атмосферные явления, наблюдавшиеся в срок или в последний час перед сроком; фигурными скобками обозначены явления, наблюдавшиеся между сроками (за 1-3 часа до срока); квадратными скобками обозначены град или гололедные отложения с указанием их диаметра в мм.
Облачность - указаны через наклонную черту общая и нижняя облачность в баллах и высота нижней границы облаков в метрах; квадратными скобками обозначены формы облаков: Ci - перистые, Cs - перисто-слоистые, Cc - перисто-кучевые, Ac - высококучевые, As - высокослоистые, Sc - слоисто-кучевые, Ns - слоисто-дождевые, Cu - кучевые, Cb - кучево-дождевые. Подробнее классификацию облаков см. в Атласе облаков (PDF).
T - Температура воздуха - температура, измеренная на высоте 2 м над землей.
Td - Температура точки росы - температура, при понижении до которой содержащийся в воздухе водяной пар достигнет насыщения.
f - Относительная влажность воздуха - влажноcть воздуха, измеренная на высоте 2 м над землей.
Te - Эффективная температура - температура, которую ощущает одетый по сезону человек в тени. Характеристика душности погоды. При расчете учитывается влияние влажности воздуха и скорости ветра на теплоощущения человека.
Tes - Эффективная температура на солнце - температура, которую ощущает человек, с поправкой на солнечный нагрев. Характеристика знойности погоды. Зависит от высоты солнца над горизонтом, облачности и скорости ветра. Ночью, в пасмурную погоду, а также при ветре 12 м/с и более поправка равна нулю.
P - Атмосферное давление - приведенное к уровню моря атмосферное давление.
Po - Атмосферное давление - измеренное на уровне метеостанции атмосферное давление.
Tmin - Минимальная температура - минимум температуры воздуха на высоте 2 м над землей.
Tmax - Максимальная температура - максимум температуры воздуха на высоте 2 м над землей.
R - Количество осадков - Количество выпавших осадков за период времени, мм. При наведении курсора мыши на число - период времени, за который выпало указанное количество осадков.
R24 - Количество осадков - Количество выпавших осадков за 24 часа, мм.
S - Снежный покров - Высота снежного покрова, см. При наведении курсора мыши на число - состояние снежного покрова и степень покрытия местности в баллах.